Zurück zum Katalog

STARLINK-35364

AktivKommunikationVLEO
NORAD 65840·PAYLOAD·🇺🇸 United States

Gestartet Sep 29, 2025 von Vandenberg Space Force Base

Loading…

Nächste Überflüge (nächste 24 Stunden)

TLE

AktuellSource: CelesTrak SupGP

Epoche: Sep 15, 2026, 04:07 UTC

1 65840C 25221T   26258.17201389 -.00015635  00000+0 -46184-3 0  2584
2 65840  53.1587 284.2778 0001388  90.5581 120.9754 15.34404456    15

Verfolge STARLINK-35364 in Echtzeit mit AllMySat

Download on the App Store